Hourly Weather Rucewo

Today, 20 April, Tuesday

Time Temperature Precipitation Wind Pressure Humidity
00:00 +11°C° 0 mm 1 mps 755 mmHg 82%
01:00 +10°C° 0 mm 1 mps 755 mmHg 83%
02:00 +10°C° 0 mm 1 mps 755 mmHg 84%
03:00 +10°C° 0 mm 1 mps 755 mmHg 84%
04:00 +10°C° 0 mm 1 mps 755 mmHg 84%
05:00 +10°C° 0.1 mm 1 mps 755 mmHg 82%
06:00 +11°C° 0.1 mm 1 mps 755 mmHg 80%
07:00 +11°C° 0.1 mm 1 mps 755 mmHg 78%
08:00 +12°C° 0.3 mm 1 mps 755 mmHg 73%
09:00 +13°C° 0.3 mm 1 mps 755 mmHg 68%
10:00 +14°C° 0.3 mm 1 mps 755 mmHg 63%
11:00 +14°C° 0.3 mm 1 mps 754 mmHg 61%
12:00 +15°C° 0.3 mm 1 mps 754 mmHg 58%
13:00 +16°C° 0.3 mm 1 mps 754 mmHg 55%
14:00 +15°C° 0.4 mm 1 mps 753 mmHg 55%
15:00 +14°C° 0.4 mm 0 mps 753 mmHg 56%
16:00 +14°C° 0.4 mm 0 mps 752 mmHg 56%
17:00 +14°C° 0.3 mm 1 mps 752 mmHg 62%
18:00 +13°C° 0.3 mm 1 mps 752 mmHg 67%
19:00 +12°C° 0.3 mm 1 mps 752 mmHg 72%
20:00 +12°C° 0 mm 1 mps 752 mmHg 74%
21:00 +11°C° 0 mm 1 mps 752 mmHg 76%
22:00 +11°C° 0 mm 1 mps 752 mmHg 78%
23:00 +10°C° 0.1 mm 1 mps 752 mmHg 80%

Tomorrow, 21 April, Wednesday

Time Temperature Precipitation Wind Pressure Humidity
00:00 +10°C° 0.1 mm 1 mps 752 mmHg 82%
01:00 +10°C° 0.1 mm 1 mps 751 mmHg 85%
02:00 +9°C° 0.1 mm 1 mps 751 mmHg 87%
03:00 +9°C° 0.1 mm 1 mps 751 mmHg 89%
04:00 +8°C° 0.1 mm 1 mps 751 mmHg 91%
05:00 +9°C° 0 mm 1 mps 751 mmHg 89%
06:00 +10°C° 0 mm 1 mps 751 mmHg 86%
07:00 +10°C° 0 mm 1 mps 751 mmHg 84%
08:00 +11°C° 0.2 mm 1 mps 751 mmHg 78%
09:00 +13°C° 0.2 mm 2 mps 750 mmHg 73%
10:00 +14°C° 0.2 mm 2 mps 750 mmHg 68%
11:00 +14°C° 0.3 mm 3 mps 750 mmHg 62%
12:00 +14°C° 0.3 mm 3 mps 750 mmHg 56%
13:00 +15°C° 0.3 mm 4 mps 750 mmHg 51%
14:00 +15°C° 0.1 mm 4 mps 749 mmHg 53%
15:00 +14°C° 0.1 mm 4 mps 749 mmHg 55%
16:00 +14°C° 0.1 mm 5 mps 749 mmHg 58%
17:00 +12°C° 0 mm 4 mps 749 mmHg 62%
18:00 +11°C° 0 mm 3 mps 749 mmHg 66%
19:00 +10°C° 0 mm 3 mps 749 mmHg 70%
20:00 +9°C° 0.1 mm 3 mps 750 mmHg 75%
21:00 +7°C° 0.1 mm 4 mps 750 mmHg 80%
22:00 +6°C° 0.1 mm 5 mps 750 mmHg 86%
23:00 +5°C° 0 mm 4 mps 750 mmHg 82%

Day after tomorrow, 22 April, Thursday

Time Temperature Precipitation Wind Pressure Humidity
00:00 +5°C° 0 mm 4 mps 750 mmHg 79%
01:00 +4°C° 0 mm 4 mps 750 mmHg 76%
02:00 +4°C° 0 mm 4 mps 750 mmHg 77%
03:00 +2°C° 0 mm 5 mps 750 mmHg 79%
04:00 +1°C° 0 mm 5 mps 750 mmHg 81%
05:00 +1°C° 0 mm 6 mps 751 mmHg 78%
06:00 +1°C° 0 mm 6 mps 751 mmHg 74%
07:00 0°C° 0 mm 7 mps 751 mmHg 71%
08:00 +2°C° 0 mm 7 mps 751 mmHg 68%
09:00 +2°C° 0 mm 7 mps 751 mmHg 65%
10:00 +3°C° 0 mm 7 mps 751 mmHg 62%
11:00 +3°C° 0.1 mm 7 mps 751 mmHg 63%
12:00 +4°C° 0.1 mm 7 mps 751 mmHg 64%
13:00 +4°C° 0.1 mm 8 mps 751 mmHg 65%
14:00 +5°C° 0.3 mm 8 mps 751 mmHg 68%
15:00 +5°C° 0.3 mm 8 mps 751 mmHg 70%
16:00 +5°C° 0.3 mm 8 mps 751 mmHg 73%
17:00 +3°C° 0.5 mm 7 mps 751 mmHg 80%
18:00 +2°C° 0.5 mm 6 mps 751 mmHg 86%
19:00 +1°C° 0.5 mm 5 mps 751 mmHg 93%
20:00 +1°C° 0.2 mm 5 mps 752 mmHg 93%
21:00 +1°C° 0.2 mm 5 mps 752 mmHg 93%
22:00 +1°C° 0.2 mm 5 mps 752 mmHg 93%
23:00 +1°C° 0 mm 5 mps 752 mmHg 93%

23 April, Friday

Time Temperature Precipitation Wind Pressure Humidity
00:00 +1°C° 0 mm 5 mps 752 mmHg 92%
01:00 +1°C° 0 mm 5 mps 752 mmHg 92%
02:00 +1°C° 0 mm 5 mps 752 mmHg 92%
03:00 +1°C° 0 mm 5 mps 753 mmHg 93%
04:00 +1°C° 0 mm 6 mps 753 mmHg 93%
05:00 +1°C° 0 mm 6 mps 753 mmHg 91%
06:00 +2°C° 0 mm 6 mps 754 mmHg 88%
07:00 +2°C° 0 mm 5 mps 754 mmHg 86%
08:00 +2°C° 0.1 mm 6 mps 755 mmHg 86%
09:00 +2°C° 0.1 mm 6 mps 755 mmHg 87%
10:00 +3°C° 0.1 mm 6 mps 756 mmHg 88%
11:00 +4°C° 0.2 mm 6 mps 756 mmHg 78%
12:00 +5°C° 0.2 mm 6 mps 756 mmHg 68%
13:00 +7°C° 0.2 mm 6 mps 756 mmHg 58%
14:00 +7°C° 0.1 mm 6 mps 757 mmHg 55%
15:00 +8°C° 0.1 mm 6 mps 757 mmHg 52%
16:00 +8°C° 0.1 mm 7 mps 757 mmHg 48%
17:00 +6°C° 0 mm 5 mps 758 mmHg 50%
18:00 +4°C° 0 mm 4 mps 758 mmHg 52%
19:00 +3°C° 0 mm 3 mps 759 mmHg 54%
20:00 +2°C° 0 mm 3 mps 759 mmHg 56%
21:00 +1°C° 0 mm 3 mps 759 mmHg 58%
22:00 +1°C° 0 mm 3 mps 759 mmHg 61%
23:00 +1°C° 0 mm 3 mps 759 mmHg 60%

24 April, Saturday

Time Temperature Precipitation Wind Pressure Humidity
00:00 +1°C° 0 mm 3 mps 758 mmHg 60%
01:00 +2°C° 0 mm 3 mps 758 mmHg 60%
02:00 +2°C° 0 mm 3 mps 757 mmHg 60%
03:00 +1°C° 0 mm 4 mps 757 mmHg 59%
04:00 +1°C° 0 mm 5 mps 756 mmHg 58%
05:00 +2°C° 0 mm 5 mps 756 mmHg 64%
06:00 +2°C° 0 mm 6 mps 756 mmHg 70%
07:00 +3°C° 0 mm 6 mps 756 mmHg 77%
08:00 +3°C° 0 mm 7 mps 756 mmHg 77%
09:00 +3°C° 0 mm 7 mps 756 mmHg 77%
10:00 +3°C° 0 mm 7 mps 756 mmHg 78%
11:00 +4°C° 0 mm 7 mps 756 mmHg 76%
12:00 +5°C° 0 mm 7 mps 756 mmHg 73%
13:00 +5°C° 0 mm 7 mps 756 mmHg 71%
14:00 +6°C° 0.4 mm 7 mps 756 mmHg 69%
15:00 +7°C° 0.4 mm 6 mps 756 mmHg 68%
16:00 +7°C° 0.4 mm 6 mps 756 mmHg 66%
17:00 +5°C° 0 mm 5 mps 757 mmHg 66%
18:00 +4°C° 0 mm 4 mps 757 mmHg 66%
19:00 +2°C° 0 mm 3 mps 758 mmHg 67%
20:00 +2°C° 0 mm 3 mps 759 mmHg 67%
21:00 +1°C° 0 mm 3 mps 759 mmHg 68%
22:00 +1°C° 0 mm 2 mps 759 mmHg 69%
23:00 0°C° 0 mm 3 mps 759 mmHg 72%

25 April, Sunday

Time Temperature Precipitation Wind Pressure Humidity
00:00 -1°C° 0 mm 3 mps 760 mmHg 75%
01:00 -1°C° 0 mm 3 mps 760 mmHg 78%
02:00 -1°C° 0 mm 3 mps 760 mmHg 81%
03:00 -1°C° 0 mm 3 mps 760 mmHg 84%
04:00 -2°C° 0 mm 3 mps 760 mmHg 88%
05:00 0°C° 0 mm 3 mps 760 mmHg 80%
06:00 +1°C° 0 mm 4 mps 760 mmHg 72%
07:00 +3°C° 0 mm 4 mps 761 mmHg 64%
08:00 +5°C° 0 mm 4 mps 761 mmHg 57%
09:00 +6°C° 0 mm 4 mps 761 mmHg 50%
10:00 +7°C° 0 mm 5 mps 761 mmHg 42%
11:00 +8°C° 0 mm 5 mps 761 mmHg 42%
12:00 +8°C° 0 mm 5 mps 761 mmHg 42%
13:00 +8°C° 0 mm 5 mps 761 mmHg 42%
14:00 +8°C° 0 mm 6 mps 761 mmHg 42%
15:00 +8°C° 0 mm 6 mps 761 mmHg 42%
16:00 +8°C° 0 mm 7 mps 761 mmHg 42%
17:00 +6°C° 0 mm 5 mps 761 mmHg 46%
18:00 +5°C° 0 mm 4 mps 761 mmHg 51%
19:00 +3°C° 0 mm 3 mps 761 mmHg 55%
20:00 +2°C° 0 mm 3 mps 761 mmHg 59%
21:00 +2°C° 0 mm 2 mps 761 mmHg 64%
22:00 +2°C° 0 mm 2 mps 761 mmHg 68%
23:00 +1°C° 0 mm 2 mps 761 mmHg 69%
Show more